AG4OX Weather Reports


Display with metric or nautical units.
time (UTC)temp
F
wind
direction
speed
MPH
gust
MPH
rain 1hr
in
rain 24hr
in
rain mn
in
humidity
%
barometer
mb
20260906064007 75 193 0.0 1.0 0.00 0.00 0.00 79 1010.3
20260906063006 75 228 1.0 2.0 0.00 0.00 0.00 79 1010.3
20260906062006 75 236 0.0 3.0 0.00 0.00 0.00 80 1010.8
20260906061005 75 225 1.0 3.0 0.00 0.00 0.00 80 1010.9
20260906060005 75 239 1.0 3.0 0.00 0.00 0.00 80 1011.0
20260906054005 75 205 0.0 2.0 0.00 0.00 0.00 81 1011.2
20260906053006 75 156 0.0 2.0 0.00 0.00 0.00 80 1011.2
20260906044006 76 169 0.0 2.0 0.00 0.00 0.00 74 1011.4
20260906043007 76 212 0.0 1.0 0.00 0.00 0.00 74 1011.4
20260906042006 76 212 0.0 1.0 0.00 0.00 0.00 74 1011.4
20260906041005 76 212 1.0 2.0 0.00 0.00 0.00 73 1011.4
20260906035006 76 265 1.0 2.0 0.00 0.00 0.00 75 1011.3
20260906033006 75 268 1.0 2.0 0.00 0.00 0.00 77 1011.3
20260906032007 75 219 0.0 2.0 0.00 0.00 0.00 77 1011.2
20260906031006 75 219 0.0 1.0 0.00 0.00 0.00 78 1011.2
20260906024007 75 212 2.0 3.0 0.00 0.00 0.00 79 1011.4
20260906023005 76 197 1.0 3.0 0.00 0.00 0.00 80 1011.6
20260906022006 76 212 1.0 2.0 0.00 0.00 0.00 78 1011.8
20260906021006 76 73 0.0 1.0 0.00 0.00 0.00 80 1011.7
20260906020005 75 73 1.0 2.0 0.00 0.00 0.00 81 1011.8
20260906015006 75 211 0.0 0.0 0.00 0.00 0.00 82 1011.8
20260906014005 75 184 0.0 0.0 0.00 0.00 0.00 81 1011.7
20260906013006 75 114 0.0 0.0 0.00 0.00 0.00 82 1011.6
20260906012006 75 136 0.0 2.0 0.00 0.00 0.00 82 1011.7
20260906011006 75 123 1.0 3.0 0.00 0.00 0.00 81 1011.7
20260906010005 75 109 1.0 3.0 0.00 0.00 0.00 81 1011.7
20260906005006 74 166 2.0 3.0 0.00 0.00 0.00 81 1011.8
20260906004006 74 218 0.0 2.0 0.00 0.00 0.00 82 1011.8
20260906003006 74 180 0.0 2.0 0.00 0.00 0.00 82 1011.5
20260906002006 74 180 1.0 2.0 0.00 0.00 0.00 82 1011.5
20260906001006 74 157 1.0 2.0 0.00 0.00 0.00 83 1011.5
20260906000005 74 121 1.0 3.0 0.00 0.00 0.00 83 1011.4
20260905235006 75 86 1.0 2.0 0.00 0.00 0.00 84 1011.1
20260905233005 76 176 0.0 3.0 0.00 0.00 0.00 83 1011.7
20260905232006 77 20 2.0 5.0 0.00 0.00 0.00 81 1012.2
20260905231006 78 42 3.0 17.0 0.00 0.00 0.00 79 1012.0
20260905230006 80 329 6.0 18.0 0.00 0.00 0.00 77 1011.9
20260905225006 81 338 10.0 15.0 0.00 0.00 0.00 74 1011.9
20260905224006 83 5 3.0 7.0 0.00 0.00 0.00 74 1011.7
20260905223007 84 77 3.0 7.0 0.00 0.00 0.00 72 1011.0
20260905222006 85 93 6.0 12.0 0.00 0.00 0.00 72 1010.6
20260905221006 85 92 3.0 12.0 0.00 0.00 0.00 70 1010.5
20260905220005 85 88 5.0 12.0 0.00 0.00 0.00 65 1009.9
20260905215006 85 108 6.0 12.0 0.00 0.00 0.00 69 1009.8
20260905214006 87 101 6.0 12.0 0.00 0.00 0.00 69 1009.8
20260905213005 87 83 3.0 6.0 0.00 0.00 0.00 68 1009.8
20260905212006 86 75 3.0 6.0 0.00 0.00 0.00 69 1009.9
20260905211006 86 146 4.0 12.0 0.00 0.00 0.00 69 1010.4
20260905205005 86 104 7.0 15.0 0.00 0.00 0.00 75 1010.8
20260905204007 87 83 10.0 16.0 0.00 0.00 0.00 68 1010.9
20260905203006 91 61 6.0 12.0 0.00 0.00 0.00 70 1010.3
20260905202006 93 92 6.0 12.0 0.00 0.00 0.00 67 1010.2
20260905201007 93 349 4.0 10.0 0.00 0.00 0.00 60 1010.2
20260905200005 92 300 3.0 6.0 0.00 0.00 0.00 61 1010.0
20260905195007 92 299 2.0 9.0 0.00 0.00 0.00 61 1010.2
20260905193006 93 299 3.0 8.0 0.00 0.00 0.00 59 1010.5
20260905192006 93 280 4.0 10.0 0.00 0.00 0.00 60 1010.7
20260905191006 93 295 3.0 12.0 0.00 0.00 0.00 61 1010.7
20260905190005 93 252 6.0 9.0 0.00 0.00 0.00 61 1010.8
20260905185007 92 264 3.0 10.0 0.00 0.00 0.00 61 1010.7
20260905184006 92 294 5.0 10.0 0.00 0.00 0.00 61 1010.9
20260905182006 91 226 3.0 7.0 0.00 0.00 0.00 65 1010.9
20260905180005 91 256 3.0 7.0 0.00 0.00 0.00 64 1011.3
20260905175006 91 231 3.0 12.0 0.00 0.00 0.00 64 1011.3
20260905174005 92 248 4.0 7.0 0.00 0.00 0.00 64 1011.3
20260905172006 90 285 3.0 7.0 0.00 0.00 0.00 65 1011.7
20260905170005 89 262 3.0 9.0 0.00 0.00 0.00 66 1012.0
20260905164007 90 213 3.0 10.0 0.00 0.00 0.00 66 1012.2
20260905163005 90 261 3.0 7.0 0.00 0.00 0.00 68 1012.3
20260905162006 90 244 2.0 12.0 0.00 0.00 0.00 66 1012.5
20260905161006 89 222 4.0 9.0 0.00 0.00 0.00 68 1012.6
20260905160006 89 251 2.0 7.0 0.00 0.00 0.00 68 1012.9
20260905155006 89 218 3.0 6.0 0.00 0.00 0.00 68 1013.2
20260905153006 88 239 4.0 12.0 0.00 0.00 0.00 71 1012.9
20260905152005 88 239 4.0 10.0 0.00 0.00 0.00 71 1013.1
20260905151006 87 224 3.0 9.0 0.00 0.00 0.00 70 1013.1
20260905150005 87 248 5.0 9.0 0.00 0.00 0.00 72 1013.0
20260905145005 86 199 4.0 12.0 0.00 0.00 0.00 73 1013.0
20260905144006 86 230 6.0 12.0 0.00 0.00 0.00 72 1013.2
20260905142006 85 238 4.0 10.0 0.00 0.00 0.00 76 1013.2
20260905141006 85 223 6.0 10.0 0.00 0.00 0.00 76 1013.3
20260905140005 85 204 3.0 6.0 0.00 0.00 0.00 76 1013.3
20260905134005 84 234 1.0 9.0 0.00 0.00 0.00 82 1013.2
20260905133006 82 223 2.0 6.0 0.00 0.00 0.00 82 1013.2
20260905132006 81 251 2.0 3.0 0.00 0.00 0.00 83 1013.1
20260905130005 80 220 2.0 3.0 0.00 0.00 0.00 81 1013.1
20260905125005 80 245 0.0 3.0 0.00 0.00 0.00 80 1013.1
20260905124007 79 239 1.0 3.0 0.00 0.00 0.00 78 1013.1
20260905123005 78 186 0.0 2.0 0.00 0.00 0.00 73 1013.1
20260905122007 78 227 1.0 2.0 0.00 0.00 0.00 68 1013.1
20260905121006 77 155 0.0 0.0 0.00 0.00 0.00 67 1013.0
20260905120005 76 155 0.0 1.0 0.00 0.00 0.00 69 1013.0
20260905115006 76 155 0.0 0.0 0.00 0.00 0.00 69 1012.9
20260905113005 75 155 0.0 1.0 0.00 0.00 0.00 71 1012.7
20260905112005 75 155 0.0 0.0 0.00 0.00 0.00 71 1012.5
20260905111007 75 155 0.0 1.0 0.00 0.00 0.00 71 1012.4
20260905110005 76 155 1.0 1.0 0.00 0.00 0.00 71 1012.3
20260905105005 75 155 0.0 1.0 0.00 0.00 0.00 71 1012.2
20260905104005 75 155 0.0 1.0 0.00 0.00 0.00 73 1012.2
20260905103007 75 155 0.0 0.0 0.00 0.00 0.00 73 1012.0
20260905102005 75 155 0.0 1.0 0.00 0.00 0.00 73 1012.0
20260905101006 76 155 0.0 1.0 0.00 0.00 0.00 73 1011.9
20260905100005 76 155 0.0 1.0 0.00 0.00 0.00 73 1011.9
20260905094007 76 155 1.0 1.0 0.00 0.00 0.00 74 1012.2
20260905093005 76 155 0.0 1.0 0.00 0.00 0.00 75 1012.0
20260905092005 76 155 0.0 0.0 0.00 0.00 0.00 74 1012.0
20260905091005 76 155 0.0 1.0 0.00 0.00 0.00 76 1012.0
20260905085007 76 155 1.0 2.0 0.00 0.00 0.00 76 1011.9
20260905084006 76 213 0.0 0.0 0.00 0.00 0.00 78 1012.0
20260905083006 76 213 0.0 1.0 0.00 0.00 0.00 77 1012.0
20260905081006 77 213 0.0 0.0 0.00 0.00 0.00 78 1011.9
20260905080005 77 213 0.0 0.0 0.00 0.00 0.00 79 1012.1
20260905075006 77 213 0.0 1.0 0.00 0.00 0.00 79 1012.0
20260905074007 77 213 0.0 1.0 0.00 0.00 0.00 79 1012.0
20260905073005 77 213 0.0 1.0 0.00 0.00 0.00 79 1011.9
20260905072005 77 223 0.0 1.0 0.00 0.00 0.00 79 1011.9
20260905071006 77 223 1.0 2.0 0.00 0.00 0.00 78 1011.9
20260905070005 77 161 0.0 2.0 0.00 0.00 0.00 79 1012.1
20260905065006 77 213 0.0 1.0 0.00 0.00 0.00 79 1012.1